Wind_Speed
3 4 5 7 8 9 10 11 12 12 13 13 14 14 14 14 14 14 13 12 12 13 13 11 14 15 6 5 5 14 6 3 1 3 4 2 1 2 2 3 3 3 3 5 4 6 6
3 5 6 7 8 9 10 11 12 13 13 14 14 14 14 14 14 13 13 13 14 13 10 10 10 9 4 2 9 12 3 3 2 5 3 3 2 4 3 2 3 1 1 5 4 2 4
4 5 7 7 8 9 10 11 12 13 14 14 14 14 13 13 14 14 14 15 16 15 11 6 4 4 4 4 12 11 13 8 8 8 3 6 4 3 1 2 2 1 3 5 4 5 6
4 5 7 8 8 9 11 11 12 13 14 14 13 12 13 14 15 14 15 17 14 11 4 2 2 2 2 8 18 23 24 15 11 14 20 17 8 1 3 2 6 3 2 1 5 2 5
4 6 7 8 9 10 11 12 13 13 13 12 11 12 13 15 15 12 13 9 14 13 11 7 4 3 3 9 24 25 28 12 18 10 8 7 4 5 4 5 4 4 4 4 5 3 1
4 6 7 8 9 10 11 13 14 13 12 9 11 13 15 16 11 9 11 3 9 9 9 6 3 2 8 9 5 26 33 13 3 5 3 2 2 4 3 4 6 6 4 2 3 3 7
4 5 7 9 10 11 12 13 13 12 9 10 13 14 16 15 6 8 7 1 5 5 11 4 3 2 4 18 11 22 30 9 8 7 5 4 2 5 8 7 6 3 3 4 2 3 7
4 5 7 9 10 11 12 13 12 10 9 12 14 16 18 6 10 13 9 5 4 3 5 5 1 1 9 14 8 17 24 7 5 4 6 5 5 2 6 7 10 8 13 12 2 4 4
4 6 7 8 9 11 12 13 10 8 9 11 14 17 20 6 6 7 14 6 1 5 4 3 4 6 12 11 3 9 12 5 4 5 6 4 5 11 9 7 7 11 14 5 8 3 5
4 6 7 8 9 11 13 13 9 7 8 10 14 17 15 1 1 7 3 7 1 5 4 9 7 4 8 8 3 5 6 4 4 7 6 9 7 7 3 5 7 12 6 10 8 5 4
5 6 7 8 9 11 12 12 9 6 7 10 14 16 12 11 5 1 3 4 3 2 4 11 4 2 6 3 4 3 4 3 3 8 3 7 9 14 14 15 5 4 5 12 12 8 4
5 6 7 8 10 12 12 11 8 5 6 10 14 15 17 9 6 2 5 3 3 5 3 6 4 8 8 4 3 4 2 1 3 3 5 14 9 8 15 17 22 12 6 2 5 6 10
5 5 7 9 11 12 12 10 6 4 5 10 16 15 21 12 9 7 6 4 5 7 3 7 7 11 10 6 5 3 8 5 1 3 7 19 5 4 11 17 17 18 11 4 7 7 5
5 6 7 10 12 12 11 8 5 5 5 11 20 19 24 27 17 2 4 5 10 4 5 5 8 13 4 7 5 9 6 5 4 2 3 3 9 3 7 5 4 18 18 8 8 5 6
5 6 7 10 11 11 11 8 5 3 2 5 17 23 30 27 20 4 6 7 6 3 4 7 11 4 4 7 2 6 5 3 5 5 3 7 9 10 17 16 13 12 15 17 3 2 3
5 6 8 10 10 11 11 7 6 1 2 3 5 6 25 25 22 13 5 7 2 3 5 3 4 6 6 7 6 6 4 4 4 4 4 5 13 8 2 12 12 6 12 15 4 4 3
5 6 8 9 10 11 11 7 6 3 2 2 4 4 24 20 9 6 4 4 2 4 7 5 3 4 4 4 3 3 4 6 3 7 4 4 4 11 10 4 4 8 11 6 5 3 4
6 7 8 9 11 11 11 9 6 4 13 9 5 3 25 10 4 2 3 3 6 5 4 4 2 3 3 4 4 2 4 4 8 5 7 1 4 7 11 14 4 3 5 11 4 4 2
6 7 8 9 11 11 9 10 4 6 9 4 3 1 11 8 4 3 3 4 3 5 4 5 3 2 1 2 4 5 6 4 8 8 6 8 4 7 6 6 13 8 4 3 2 2 2
6 8 9 10 12 13 9 8 5 2 3 5 3 3 4 5 1 3 2 4 6 5 3 4 3 3 6 2 4 5 6 6 10 6 11 7 4 9 11 9 10 9 29 23 9 4 3
7 8 9 12 14 14 11 9 8 6 8 6 4 0 3 3 5 4 2 4 5 5 3 7 4 3 2 4 3 6 4 6 6 6 4 3 3 5 12 17 31 24 27 27 26 15 7
7 8 10 13 15 17 13 11 9 4 6 8 4 4 3 2 3 4 8 5 3 5 1 5 4 13 2 2 2 5 7 5 6 7 3 2 2 1 5 14 14 26 23 24 27 24 13
8 9 10 12 14 18 19 15 9 3 5 6 4 5 4 5 3 1 3 4 4 6 5 6 6 3 3 3 6 7 6 2 4 9 3 3 3 2 3 9 7 22 20 12 18 17 16
9 9 10 12 14 17 18 19 19 17 14 18 9 7 4 3 3 3 4 3 4 4 3 6 3 1 5 7 3 2 1 2 6 12 5 2 2 3 2 4 9 7 13 6 8 19 20
10 10 12 14 15 16 18 18 18 18 18 23 12 5 3 3 1 4 8 5 5 5 3 4 4 4 11 3 3 4 4 5 4 9 18 10 2 4 4 6 4 16 18 12 6 16 22
11 10 11 13 14 15 16 16 20 20 20 25 20 11 7 5 5 3 4 4 4 4 6 4 6 11 5 3 4 4 5 5 7 15 10 14 16 5 4 6 10 15 22 22 3 11 24
11 11 10 11 13 14 15 17 16 16 17 21 19 10 6 4 2 2 4 4 3 4 3 4 8 9 5 4 4 5 3 4 6 7 8 7 5 11 9 6 5 12 23 11 13 8 19
12 11 11 11 11 12 12 12 13 14 17 24 18 18 15 3 2 1 3 3 4 2 2 5 3 5 5 5 3 2 4 3 3 6 6 7 4 5 5 5 7 16 9 11 3 6 10
12 11 10 11 10 10 10 10 10 11 15 16 14 11 10 9 3 6 8 13 8 5 2 5 4 1 3 3 3 2 3 4 6 4 9 7 9 5 6 4 3 7 6 6 3 6 11
Wind_Direction
23 12 3 356 352 345 343 340 336 343 338 339 336 337 338 336 335 336 336 334 332 332 335 339 340 351 7 11 282 337 335 218 133 2 31 52 95 125 202 210 159 190 240 179 251 300 259
7 7 357 359 349 345 343 341 338 340 339 339 338 338 338 339 339 342 338 333 330 328 327 335 343 357 39 7 350 343 317 278 342 347 353 150 205 199 240 264 184 338 1 293 297 250 279
12 0 357 353 347 347 342 343 339 340 339 340 343 343 346 348 347 344 339 336 325 308 296 316 348 15 67 244 350 1 357 305 296 311 282 244 226 155 138 285 323 323 313 326 226 221 235
6 1 357 350 348 348 343 342 340 341 343 346 349 352 352 350 344 345 337 338 336 324 299 179 91 44 251 7 31 25 359 341 327 280 257 264 274 184 183 199 13 5 75 27 295 177 263
360 2 354 350 350 348 344 343 342 344 346 350 358 355 353 349 347 348 347 16 42 66 95 110 72 61 22 8 14 13 4 318 314 288 261 232 167 192 85 99 3 2 244 178 308 230 188
10 357 355 351 350 350 348 345 345 347 350 4 4 356 353 349 353 7 355 68 57 54 75 62 45 35 12 334 38 16 7 7 309 326 12 116 124 175 76 123 228 201 227 230 218 352 21
13 357 2 354 350 355 351 349 351 356 10 14 8 3 353 351 54 14 1 321 24 356 39 95 194 82 280 343 39 15 9 359 15 46 14 321 310 222 215 209 185 173 204 184 200 299 349
10 7 12 357 357 357 357 358 1 10 27 20 17 14 360 57 85 53 58 72 89 171 74 65 113 18 9 354 12 11 20 43 31 356 335 350 266 21 341 244 228 212 238 245 262 233 218
18 23 19 5 1 5 4 5 7 20 28 29 24 14 15 120 39 30 63 54 35 156 96 66 68 39 17 347 68 345 22 355 355 324 309 225 271 309 288 277 248 244 241 221 234 220 266
31 31 23 9 9 6 8 8 8 26 37 35 23 13 12 18 356 14 85 13 84 174 86 347 355 344 2 331 47 331 9 41 347 305 315 276 245 226 255 228 219 255 228 235 231 168 238
44 34 23 12 6 3 4 7 9 46 49 30 18 13 15 30 325 349 340 340 124 106 60 329 307 300 340 86 251 320 343 15 248 275 245 251 319 290 260 242 226 252 238 214 218 219 207
54 39 25 12 6 4 1 6 17 68 55 27 27 22 24 12 4 349 310 136 97 46 304 322 312 327 334 327 248 301 300 49 242 264 250 257 260 245 248 251 233 229 267 257 171 197 232
58 35 21 10 5 2 2 9 27 93 61 39 35 36 29 28 333 340 120 72 43 83 300 320 300 324 331 314 301 357 321 305 198 3 317 313 271 242 230 236 254 246 195 233 203 198 214
58 31 19 9 5 8 8 16 43 112 84 57 48 47 30 18 10 104 100 57 65 258 275 271 301 311 302 337 331 314 297 320 350 185 286 287 319 222 160 190 267 234 201 197 182 166 187
57 33 18 11 9 11 12 21 46 116 116 77 51 40 18 14 11 125 71 54 175 238 293 310 323 343 318 345 331 341 335 283 240 202 308 300 270 277 259 278 205 217 230 204 131 98 127
58 37 22 15 13 13 16 24 34 84 292 333 17 352 4 349 17 45 71 102 118 228 321 334 342 19 319 326 342 0 314 262 284 250 196 271 288 296 250 304 215 221 190 198 250 158 174
60 42 26 21 16 16 20 22 23 36 317 243 28 46 344 2 24 45 86 80 359 33 32 3 357 290 277 295 280 293 280 277 250 293 284 274 242 285 306 9 130 193 189 191 174 201 160
62 45 32 28 20 18 20 19 21 58 108 89 74 48 357 1 55 32 55 9 343 355 1 4 328 264 259 298 288 283 264 226 341 292 321 309 287 288 302 305 336 6 160 208 131 193 109
68 49 39 35 25 17 11 9 22 96 108 83 85 244 356 40 80 5 3 345 47 352 318 4 314 241 244 271 303 276 315 298 16 350 2 351 316 317 350 77 38 46 348 274 126 71 109
73 53 48 40 30 22 22 10 11 148 165 81 85 37 343 36 39 90 22 4 352 339 315 348 270 294 316 257 226 291 288 305 331 319 338 355 327 42 68 49 79 55 50 48 47 43 49
80 59 59 46 42 37 43 37 46 131 121 95 42 175 175 353 3 31 53 11 350 349 353 3 337 298 274 306 325 322 291 299 323 326 339 41 57 146 110 59 61 56 45 42 44 27 38
89 69 69 55 55 50 53 50 47 118 166 80 114 123 34 17 359 18 12 8 322 318 283 313 330 318 298 252 17 307 337 340 27 329 328 302 292 296 12 360 37 49 34 39 34 25 17
95 78 76 63 62 57 56 51 45 77 171 99 109 85 99 339 353 59 347 296 294 325 261 236 279 291 295 253 287 254 232 224 305 339 313 309 333 321 341 343 338 33 5 31 34 24 11
101 84 84 73 71 66 63 60 61 72 114 112 98 103 86 24 62 17 311 289 282 292 252 287 298 142 254 326 228 117 225 300 272 357 1 281 333 42 314 350 52 323 2 354 42 15 6
109 94 94 80 80 75 71 66 67 79 98 94 83 91 105 65 19 338 339 326 300 294 261 265 301 258 310 356 57 27 350 10 328 337 14 29 71 50 77 49 161 15 351 336 341 19 359
117 106 102 88 83 80 76 78 81 83 94 92 68 71 95 112 355 281 329 329 341 315 326 280 314 329 29 51 55 42 33 333 348 343 358 18 40 75 11 74 31 343 340 321 246 10 345
124 114 104 103 89 88 87 81 81 83 86 88 64 62 89 102 317 58 15 294 313 300 252 309 337 349 25 28 43 53 30 331 10 6 333 354 357 38 35 77 75 337 346 343 56 322 329
128 120 111 108 101 92 92 96 97 85 83 99 73 71 79 107 346 7 333 326 330 36 20 298 29 2 14 45 62 337 43 357 47 20 343 8 8 12 16 60 37 346 353 48 259 300 342
131 128 119 115 109 99 91 90 99 104 114 108 84 65 68 75 197 26 33 30 352 300 176 359 143 335 200 82 42 75 25 24 3 25 357 46 50 58 50 90 272 314 8 347 304 318 353
Height
824 824 823 821 820 819 818 816 814 811 810 809 807 805 803 801 800 798 797 796 794 793 791 790 788 786 784 785 783 778 777 776 776 775 776 778 780 783 785 785 783 786 784 783 780 783 781
824 824 823 821 821 819 817 815 814 811 810 808 806 804 802 800 798 797 795 794 792 791 790 789 789 788 787 786 782 779 778 778 776 776 776 777 779 780 783 784 785 783 783 785 781 779 779
825 824 823 822 821 819 817 815 814 811 809 808 805 803 801 799 797 796 794 792 790 788 788 788 788 788 790 788 784 782 782 779 778 778 778 777 777 780 781 784 782 782 785 786 783 779 778
825 824 823 822 821 819 817 815 813 811 809 807 805 802 800 798 797 795 792 790 787 784 784 787 788 789 789 785 786 783 781 777 776 775 776 776 778 779 780 781 786 786 788 793 782 779 775
825 824 823 822 821 819 817 815 813 811 809 806 804 802 800 798 796 793 791 789 787 785 785 787 790 791 788 786 787 786 782 779 773 772 772 774 776 780 782 793 801 804 803 798 785 778 773
825 824 823 822 821 819 817 815 812 810 808 806 804 802 799 797 795 793 791 790 790 789 790 790 792 794 793 797 792 788 782 778 774 773 773 776 780 785 796 799 805 802 803 802 790 784 785
824 824 823 823 821 819 817 814 812 810 807 806 804 802 799 796 794 793 791 791 795 795 793 801 803 802 800 797 794 791 785 780 779 784 794 786 790 790 791 788 785 786 793 794 792 783 791
825 824 823 823 821 819 817 814 812 809 808 806 805 802 798 796 796 794 792 795 800 803 804 802 803 803 800 797 797 795 790 792 793 799 795 797 797 783 785 783 781 784 783 786 788 786 789
824 823 823 823 821 819 817 814 812 810 809 807 805 803 799 797 797 796 797 799 800 800 806 803 802 804 805 800 803 804 798 798 797 798 798 801 790 785 786 787 783 781 779 785 788 784 785
825 824 823 823 821 819 817 815 812 811 810 808 806 804 801 798 800 798 799 800 799 800 812 815 809 807 805 802 806 802 801 803 803 803 799 794 783 782 782 784 782 784 775 776 780 790 803
825 825 824 823 821 819 817 815 813 812 811 809 808 805 801 798 799 799 801 799 799 802 852 818 810 807 808 811 810 804 802 800 804 804 803 794 791 785 776 773 776 776 768 770 774 783 788
825 825 825 824 822 819 818 815 813 812 811 810 808 805 802 799 798 799 797 798 801 827 874 823 813 813 813 809 808 803 802 801 801 803 799 797 788 787 780 771 763 765 768 767 770 781 785
826 826 825 824 822 820 817 815 813 813 812 811 809 806 802 800 800 796 797 800 830 871 829 823 820 814 815 813 810 807 808 808 816 822 803 792 783 774 772 781 773 766 769 783 773 774 772
827 827 825 824 822 820 818 816 814 813 813 812 810 807 804 801 799 797 798 815 864 838 831 822 819 817 821 817 814 811 810 814 823 814 821 817 792 771 772 783 782 768 755 763 759 759 764
827 827 826 825 823 821 819 816 814 814 814 813 811 808 804 802 799 797 808 861 862 838 831 829 822 822 820 820 822 819 815 820 827 808 809 804 782 760 763 771 776 763 762 745 745 762 758
828 828 827 826 824 822 819 817 815 814 814 813 812 810 809 805 802 799 821 835 834 833 830 829 834 831 832 829 828 824 818 821 808 801 799 799 787 753 754 757 759 758 738 758 756 764 754
829 828 827 826 824 822 820 818 816 815 814 813 814 821 815 809 806 816 852 838 833 830 832 836 837 835 832 834 828 827 819 813 807 800 798 796 796 759 754 749 739 755 745 752 758 750 754
830 830 828 827 825 822 820 818 817 815 814 814 818 838 821 812 830 845 847 838 835 835 834 836 836 835 835 832 829 825 821 814 804 802 802 801 790 773 761 758 755 746 745 747 758 750 742
831 830 829 828 826 823 821 819 817 816 816 816 829 834 823 816 859 858 841 840 838 839 837 835 835 836 834 832 832 819 812 804 808 805 802 801 787 773 740 755 760 771 758 748 739 744 746
832 831 830 829 827 824 821 819 817 817 817 818 831 854 840 837 849 846 845 847 843 839 837 837 836 835 835 829 829 824 821 812 807 805 801 805 799 795 792 794 784 786 775 773 753 761 764
833 833 832 831 828 826 823 820 817 817 818 820 836 855 853 868 855 852 847 849 848 845 839 839 835 835 842 828 825 821 820 810 804 807 808 811 799 795 798 794 781 792 795 792 798 800 799
835 835 834 833 831 829 825 823 820 819 819 823 842 849 854 858 855 853 854 853 853 849 846 843 842 833 837 835 830 827 824 819 820 809 809 808 800 794 789 787 781 796 806 806 809 813 806
836 837 836 836 834 832 828 825 822 820 820 827 836 841 847 861 860 857 862 857 851 852 841 839 837 838 833 826 826 824 823 825 826 817 811 806 805 793 796 794 776 789 822 823 832 828 825
838 838 839 838 837 835 832 830 826 823 822 825 834 839 855 866 860 861 857 855 851 849 849 837 834 839 825 823 821 820 821 820 819 811 809 806 799 815 822 803 821 839 835 829 830 836 827
839 840 841 841 840 839 837 836 833 832 831 830 836 840 853 870 865 858 857 855 849 847 844 841 831 828 823 822 824 829 832 826 823 816 808 807 811 830 840 827 835 829 836 835 832 838 833
841 843 844 844 844 843 842 841 840 838 837 836 840 844 847 866 866 863 861 858 860 856 846 837 831 826 823 830 835 853 852 843 842 823 815 812 809 828 840 844 853 860 846 828 827 832 835
843 844 846 846 847 846 846 845 845 844 843 842 846 848 848 863 863 862 865 866 859 860 861 851 843 838 833 847 856 857 860 856 856 856 848 832 836 840 835 847 867 866 850 829 840 868 846
845 846 848 849 850 850 850 850 850 849 849 847 852 853 853 861 862 861 861 861 860 861 867 849 849 849 850 857 866 876 870 876 874 868 868 857 860 852 851 864 878 867 858 855 869 860 853
847 848 850 851 852 853 853 853 853 853 853 853 854 857 857 857 864 862 862 862 860 858 860 858 861 861 868 871 875 875 879 884 873 883 866 869 873 873 875 886 883 878 873 869 867 862 856